Regional Weather Roundup
Issued by NWS

Home | Current Version | Previous Version | Graphics & Text | Print | Product List | Glossary On
Versions: 1 2 3 4 5 6 7 8 9 10 11 12 13 14 15 16 17 18 19 20 21 22 23 24 25 26 27 28 29 30 31 32 33 34 35 36 37 38 39 40 41 42 43 44 45 46 47 48 49 50
496
ASUS43 KMPX 252101
RWRMN
WEATHER ROUNDUP FOR MINNESOTA
NATIONAL WEATHER SERVICE TWIN CITIES/CHANHASSEN MN
400 PM CDT THU MAY 25 2017


NOTE: "FAIR" INDICATES FEW OR NO CLOUDS BELOW 12,000 FEET WITH NO
SIGNIFICANT WEATHER AND/OR OBSTRUCTIONS TO VISIBILITY. N/A MEANS
CURRENT SKY AND/OR WEATHER CONDITIONS ARE NOT AVAILABLE.

MNZ060>063-068>070-252200-
   Twin Cities Metro

CITY           SKY/WX    TMP DP  RH WIND       PRES   REMARKS
TWIN CITIES    LGT RAIN  66  51  58 S8        29.64F
ST PAUL        CLOUDY    66  51  58 S7        29.65S
CRYSTAL        PTSUNNY   70  47  43 SE12      29.63S
BLAINE         PTSUNNY   68  48  49 SE9       29.64S
LAKEVILLE      MOSUNNY   68  52  56 S8        29.64S
EDEN PRAIRIE   PTSUNNY   69  49  48 S14       29.63F
SOUTH ST PAUL  MOSUNNY   67  48  50 S8        29.64S
LAKE ELMO      PTSUNNY   66  50  55 SE9       29.66S
$$
MNZ001>005-007-008-013>017-022>024-027-028-252200-
   Northwest Minnesota

CITY           SKY/WX    TMP DP  RH WIND       PRES   REMARKS
BEMIDJI        CLOUDY    63  45  51 SE13      29.59F
HALLOCK        CLOUDY    66  45  45 SE28      29.49F
ROSEAU         MOSUNNY   66  48  52 S17G24    29.56S
WARROAD        MOSUNNY   70  48  46 S20G26    29.57F
CROOKSTON      CLOUDY    66  46  48 S17G25    29.51F
FOSSTON        PTSUNNY   64  45  48 SE14G24   29.56S
DETROIT LAKES  PTSUNNY   63  46  55 SE18G24   29.56F
MOORHEAD       CLOUDY    66  46  48 S25G31    29.51S
PARK RAPIDS    LGT RAIN  66  43  43 S14G26    29.59S
MAHNOMEN       CLOUDY    65  46  49 SE21      29.55S
$$
MNZ006-009>011-018-025>026-252200-
   North Central Minnesota

CITY           SKY/WX    TMP DP  RH WIND       PRES   REMARKS
BAUDETTE       MOSUNNY   67  45  45 S18G25    29.58F
FLAG ISLAND      N/A     59  50  72 S8        29.57F HAZE
INTL FALLS     CLOUDY    68  45  43 S8G22     29.62F
WASKISH        CLOUDY    66  48  52 SE10G20   29.60R
BIG FORK       SUNNY     66  46  48 S13       29.63S
LONGVILLE      MOSUNNY   64  46  52 S13G18    29.63R
GRAND RAPIDS   MOSUNNY   63  47  55 SE10      29.65F
CRANE LAKE     MOSUNNY   66  43  42 CALM      29.66F
ORR            PTSUNNY   66  41  39 S14       29.62F
COOK           PTSUNNY   64  46  52 SE7G18    29.66F
WALKER         CLOUDY    65  47  53 S14       29.61S
$$
MNZ012-019>021-037-252200-
   Northeast Minnesota

CITY           SKY/WX    TMP DP  RH WIND       PRES   REMARKS
DULUTH         MOSUNNY   65  47  52 E13       29.67F
ELY            MOSUNNY   64  43  45 S10G20    29.68S
HIBBING        MOSUNNY   64  44  48 SE12G24   29.65F
EVELETH        CLOUDY    64  39  39 SE8G18    29.68S
DULUTH HARBOR  CLOUDY    52  45  76 E12       29.70F
TWO HARBORS    SUNNY     64  50  59 E16       29.68S
SILVER BAY     SUNNY     61  46  59 E13       29.70F
GRAND MARAIS     N/A     53  43  68 NE8       29.73F
G MARAIS ARPRT SUNNY     61  39  44 E9        29.75S
$$
MNZ029>031-032-039>041-046>048-054>057-064-252200-
   West Central Minnesota

CITY           SKY/WX    TMP DP  RH WIND       PRES   REMARKS
FERGUS FALLS   CLOUDY    66  48  52 S18G29    29.52F
WHEATON        LGT RAIN  64  52  63 SE18G26   29.52F
MORRIS         CLOUDY    66  52  59 SE20G25   29.54F
ALEXANDRIA     CLOUDY    65  47  52 S16G28    29.59F
ELBOW LAKE     CLOUDY    64  50  59 E18       29.55F
WADENA         PTSUNNY   64  46  52 SE17G23   29.59S
GLENWOOD       CLOUDY    64  48  55 SE18      29.60S
APPLETON       CLOUDY    70  50  49 SE12G22   29.54S
BENSON         CLOUDY    68  48  49 S13G21    29.58S
ORTONVILLE     CLOUDY    68  52  56 S12G17    29.53S
MADISON        CLOUDY    72  52  49 S15       29.54R
WILLMAR        FAIR      72  50  46 S14G22    29.59F
$$
MNZ033>034-036-042>043-049>051-058-059-252200-
   Central Minnesota

CITY           SKY/WX    TMP DP  RH WIND       PRES   REMARKS
ST CLOUD       MOSUNNY   69  50  50 SE14G21   29.63R
SAUK CENTRE    MOCLDY    66  48  51 SE17G26   29.61F
PAYNESVILLE    CLOUDY    66  47  49 SE13G20   29.62S
AITKIN         MOSUNNY   64  48  55 S9        29.63S
PINE RIVER     PTSUNNY   66  52  59 SE10      29.66S
BRAINERD       CLOUDY    65  47  52 SE15G21   29.63S
STAPLES        PTSUNNY   64  45  48 SE14      29.61S
LONG PRAIRIE   PTSUNNY   64  46  52 E18       29.61F
LITTLE FALLS   PTSUNNY   64  45  48 SE14G20   29.63S
LITCHFIELD     MOSUNNY   70  54  56 SE12G17   29.62F
BUFFALO        MOSUNNY   67  48  49 SE9       29.64F
MAPLE LAKE     MOSUNNY   68  52  56 SE7       29.65S
HUTCHINSON     PTSUNNY   68  52  55 SE15      29.63F
$$
MNZ037-044-045-052-053-252200-
   East Central Minnesota

CITY           SKY/WX    TMP DP  RH WIND       PRES   REMARKS
PRINCETON      CLOUDY    70  48  46 SE10G18   29.64S
MORA           MOSUNNY   64  46  52 SE9       29.67S
CAMBRIDGE      CLOUDY    70  52  52 SE8       29.63S
RUSH CITY      CLOUDY    70  48  46 S12G17    29.65F
MOOSE LAKE     MOSUNNY   63  46  55 NE7       29.64S
HINCKLEY       FAIR      68  52  56 SW6       29.65S
CLOQUET        SUNNY     61  43  51 E13       29.67F
MCGREGOR       PTSUNNY   64  46  52 SE10G16   29.65S
$$
MNZ071>073-080-081-089-090-097-098-252200-
   Southwest Minnesota

CITY           SKY/WX    TMP DP  RH WIND       PRES   REMARKS
MONTEVIDEO     CLOUDY    70  50  49 S14G20    29.56S
CANBY          LGT RAIN  69  51  53 S6G20     29.56R
MARSHALL       PTSUNNY   71  50  47 S18       29.55S
REDWOOD FALLS  MOSUNNY   70  49  47 S18       29.57F
OLIVIA         PTSUNNY   70  50  49 S16G23    29.58F
PIPESTONE      LGT RAIN  66  48  52 SW13      29.56R
WINDOM         PTSUNNY   70  48  46 SE22      29.58F
WORTHINGTON    CLOUDY    70  49  47 S16G23    29.57S
JACKSON        MOSUNNY   68  48  49 SE15      29.59F
TRACY          CLOUDY    71  52  52 S16       29.56F
SLAYTON        CLOUDY    69  49  50 S17G23    29.57S
$$
MNZ065>067-074>077-082>085-091>093-252200-
   South Central Minnesota

CITY           SKY/WX    TMP DP  RH WIND       PRES   REMARKS
MANKATO        MOSUNNY   68  50  52 SE13G21   29.62F
NEW ULM        MOSUNNY   70  48  46 SE13      29.60F
ST JAMES       SUNNY     70  48  46 S16       29.60F
FAIRMONT       CLOUDY    70  49  47 S21       29.60F
GLENCOE        MOSUNNY   70  54  56 SE14      29.62F
FARIBAULT      CLOUDY    70  52  52 S10G17    29.65S
OWATONNA       MOSUNNY   70  50  49 SE10      29.65S
WASECA         SUNNY     68  50  52 SE14      29.65F
ALBERT LEA     SUNNY     70  48  46 S10G18    29.64F
$$
MNZ078>079-086>088-094>096-252200-
   Southeast Minnesota

CITY           SKY/WX    TMP DP  RH WIND       PRES   REMARKS
ROCHESTER      MOSUNNY   68  54  60 S9        29.66F
RED WING       SUNNY     72  48  43 SE8       29.64F
STANTON        MOSUNNY   68  50  51 SE13      29.63F
DODGE CENTER   SUNNY     66  50  55 S13       29.65F
WINONA         SUNNY     70  52  52 SE3       29.66F
AUSTIN         SUNNY     66  52  59 SE8       29.65F
PRESTON        PTSUNNY   68  51  54 SE8       29.67F
$$
ABBREVIATIONS USED IN REMARKS
   TC - TEMPERATURES IN CELSIUS
  WCI - WIND CHILL INDEX
   HX - HEAT INDEX
  VSB - VISIBILITY
$$




USA.gov is the U.S. government's official web portal to all federal, state and local government web resources and services.